sat.trackr.live / text

‹ back to catalog

STARLINK-4351

NORAD 53193 · 2022-084E

PAYLOAD ACTIVE UNKNOWN

§ Identity

Operator
Country
US
Launch date
2022-07-22
Launch site
AFWTR
Launch vehicle
Mass (kg)
RCS (m²)

Purposes: comms

External: N2YO · Heavens-Above · Gunter

§ Orbital elements

Epoch: 2026-05-25T03:02:57.532128Z

Period
95.64 min
Inclination
97.4498°
Eccentricity
0.0000614
Mean motion
15.05671161 rev/d
Perigee alt
549.0 km
Apogee alt
549.9 km
Semi-major
6,927.6 km
B*
-5.3399e-4
RAAN
205.0598°
Arg perigee
224.5226°
Mean anomaly
135.5952°
Rev number
21,182

§ Raw data

STARLINK-43511 53193U 22084E   26145.12705477 -.00007759  00000+0 -53399-3 0  99992 53193  97.4498 205.0598 0000614 224.5226 135.5952 15.05671161211824

JSON: /api/v1/satellites/53193 · /tle

For live sub-satellite position, see the globe view (requires WebGL).

§ Visibility from observer

Set your observer location to see the next 7 days of passes ≥ 10°. The values pass through the URL so the page stays shareable.

No JS? Fill the form by hand. The geolocation button needs JavaScript.